Flag for Vietnam Weather past 2 weeks in Hanoi, Vietnam

Now
90 °F

Broken clouds.


Feels Like: 100 °F
Forecast: 76 / 84 °F
Wind: 6 mph from Northeast

Location: Ha Noi Airport

Current Time: Aug 27, 2014 at 4:25:59 PM

Latest Report: Aug 27, 2014 at 4:00 PM


Visibility: N/A

Pressure: 29.74 "Hg

Humidity: 63%

Dew point: 75 °F

Location of HanoiLocation

Historic Weather in Hanoi — Graph

°F

Hanoi temperature yesterday

Maximum temperature yesterday: 91 °F (at 11:00 AM)
Minimum temperature yesterday: 77 °F (at 10:00 PM)
Average temperature yesterday: 81 °F

Past Weeks' High & Low Weather Summary

 TemperatureHumidityPressure
High95 °F (Aug 17, 1:00 PM)100% (Aug 13, 5:30 AM)29.86 "Hg (Aug 13, 5:30 AM)
Low77 °F (Aug 13, 5:30 AM)53% (Aug 17, 12:30 PM)29.45 "Hg (Aug 12, 3:00 PM)
Average82 °F86%29.74 "Hg
* Reported Aug 12 3:00 PM — Aug 27 3:00 PM, Hanoi, Weather by CustomWeather, © 2014

Note: Actual official high and low records may vary slightly from our data, if they occured in-between our weather recording intervals... More about our weather records

Advertising

Hanoi weather history for previous 24 hours

 ConditionsComfort  
Time TempWeatherWind HumidityBarometerVisibility
3:00 PM
Aug 27
90 °FBroken clouds.5 mphN/AN/AN/A
2:30 PM90 °FPartly sunny.5 mph67%29.77 "HgN/A
2:00 PM88 °FPartly sunny.6 mph75%29.77 "HgN/A
1:30 PM82 °FBroken clouds.12 mph84%29.77 "HgN/A
1:00 PM88 °FThundershowers. Broken clouds.8 mph75%29.77 "HgN/A
12:30 PM90 °FPartly sunny.7 mphN/AN/AN/A
12:00 PM90 °FBroken clouds.6 mph71%29.80 "HgN/A
11:30 AM88 °FBroken clouds.3 mph70%29.83 "HgN/A
11:00 AM88 °FPartly sunny.6 mph70%29.83 "HgN/A
10:30 AM86 °FPartly sunny.7 mph75%29.86 "HgN/A
10:00 AM84 °FPartly sunny.5 mph79%29.86 "HgN/A
9:30 AM84 °FPartly sunny.6 mph84%29.86 "HgN/A
9:00 AM82 °FPartly sunny.2 mph84%29.86 "HgN/A
8:30 AM82 °FPartly sunny.2 mph84%29.83 "HgN/A
8:00 AM81 °FPartly sunny.3 mph89%29.83 "HgN/A
7:30 AM79 °FBroken clouds.3 mph94%29.80 "Hg6 mi
6:30 AM77 °FBroken clouds.5 mph100%29.80 "Hg6 mi
6:00 AM77 °FBroken clouds.2 mph100%29.80 "Hg5 mi
5:30 AM77 °FPartly cloudy.1 mph100%29.80 "HgN/A
5:00 AM77 °FPartly cloudy.No wind100%29.77 "HgN/A
4:30 AM77 °FPassing clouds.No wind94%29.77 "Hg6 mi
4:00 AM77 °FPassing clouds.2 mph100%29.77 "Hg6 mi
3:30 AM77 °FPassing clouds.2 mph94%29.77 "Hg5 mi
3:00 AM77 °FPartly cloudy.2 mph94%29.77 "Hg4 mi
2:30 AM77 °FClear.5 mph94%29.80 "Hg4 mi
2:00 AM77 °FClear.5 mph94%29.80 "Hg4 mi
1:30 AM77 °FClear.6 mph94%29.80 "Hg4 mi
1:00 AM77 °FPassing clouds.6 mph100%29.80 "Hg4 mi
12:30 AM77 °FPassing clouds.2 mph100%29.83 "Hg5 mi
12:00 AM77 °FPassing clouds.5 mph100%29.83 "Hg4 mi
11:30 PM
Aug 26
77 °FClear.6 mph100%29.83 "Hg10 mi
11:00 PM77 °FClear.6 mph100%29.83 "Hg4 mi
10:30 PM77 °FPassing clouds.5 mph100%29.83 "Hg3 mi
10:00 PM77 °FPassing clouds.3 mph100%29.83 "Hg3 mi
9:30 PM79 °FPassing clouds.2 mph94%29.83 "Hg4 mi
9:00 PM79 °FPassing clouds.No wind94%29.80 "Hg4 mi
8:30 PM79 °FPassing clouds.1 mph94%29.80 "Hg4 mi
8:00 PM79 °FPassing clouds.2 mph94%29.80 "Hg3 mi
7:30 PM79 °FPassing clouds.3 mph94%29.77 "Hg4 mi
6:00 PM79 °FBroken clouds.5 mph94%29.74 "HgN/A
5:30 PM79 °FPartly sunny.5 mph94%29.74 "HgN/A
5:00 PM79 °FBroken clouds.6 mph94%29.77 "HgN/A
4:30 PM79 °FLight rain. Partly sunny.7 mph94%29.77 "HgN/A
4:00 PM79 °FPartly sunny.2 mph94%29.77 "HgN/A
Weather by CustomWeather, © 2014

See weather overviewHow to use our weather pages